Tobias Bolanos Internatio, Costa Rica

10:27 AM CST on June 26, 2017 (GMT -0600)
Tobias Bolanos International

Weather History for MRPV - November, 2013

Change the Weather History Date:

Wednesday, November 20, 2013

  Actual Average Record
Temperature  
Mean Temperature 72 °F -  
Max Temperature 84 °F 75 °F 83 °F (2015)
Min Temperature 59 °F 66 °F 60 °F (2008)
Cooling Degree Days 6    
Growing Degree Days 22 (Base 50)    
Moisture  
Dew Point 63 °F    
Average Humidity 71    
Maximum Humidity 100    
Minimum Humidity 36    
Precipitation  
Precipitation 0.08 in - - ()
Sea Level Pressure  
Sea Level Pressure 29.97 in    
Wind  
Wind Speed 8 mph ()    
Max Wind Speed 14 mph    
Max Gust Speed -    
Visibility 4.9 miles    
Events Rain    
Averages and records for this station are not official NWS values.
T = Trace of Precipitation, MM = Missing Value Source: Averaged Metar Reports

Daily Weather History Graph

Daily Weather History Graph

Search for Another Location

Airport or City:

Trip Planner

Search our weather history database for the weather conditions in past years. The results will help you decide how hot, cold, wet, or windy it might be!

Date:

Astronomy

Nov. 20, 2013 Rise Set
Actual Time 5:33 AM CST 5:11 PM CST
Civil Twilight 5:10 AM CST 5:33 PM CST
Nautical Twilight 4:45 AM CST 5:59 PM CST
Astronomical Twilight 4:19 AM CST 6:25 PM CST
Moon 7:52 PM CST (11/20) 7:56 AM CST (11/20)
Length of Visible Light 12h 22m
Length of Day
11h 38m
Waning Gibbous, 91% of the Moon is Illuminated
Nov 20
Waning Gibbous
Nov 25
Last Quarter
Dec 2
New
Dec 9
First Quarter
Dec 17
Full

Hourly Weather History & Observations

Time (CST) Temp. Dew Point Humidity Pressure Visibility Wind Dir Wind Speed Gust Speed Precip Events Conditions
6:00 AM 60 °F 57 °F 86% 29.91 in 6 mi East 6.9 mph - -   Clear
6:00 AM 60.8 °F 57.2 °F 88% 30.02 in - East 6.9 mph - N/A   Clear
7:00 AM 68.0 °F 57.2 °F 68% 30.04 in - East 4.6 mph - N/A   Clear
8:00 AM 73.4 °F 55.4 °F 53% 30.04 in - SE 11.5 mph - N/A   Clear
9:00 AM 77 °F 55 °F 36% 29.90 in 6 mi ESE 11.5 mph - -   Clear
9:00 AM 77.0 °F 55.4 °F 47% 30.04 in - ESE 11.5 mph - N/A   Clear
10:00 AM 80.6 °F 51.8 °F 37% 30.04 in 6.2 mi East 11.5 mph - N/A   Partly Cloudy
11:00 AM 78.8 °F 62.6 °F 57% 30.02 in 6.2 mi West 11.5 mph - N/A   Partly Cloudy
12:00 PM 78 °F 64 °F 53% 29.85 in 6 mi West 13.8 mph - -   Scattered Clouds
12:00 PM 78.8 °F 64.4 °F 61% 30.01 in 6.2 mi West 13.8 mph - N/A   Partly Cloudy
1:00 PM 77.0 °F 64.4 °F 65% 29.98 in 6.2 mi West 10.4 mph - N/A   Scattered Clouds
2:00 PM 77.0 °F 66.2 °F 69% 29.96 in 6.2 mi West 13.8 mph - N/A   Partly Cloudy
3:00 PM 77 °F 65 °F 59% 29.82 in 6 mi West 12.7 mph - - Rain Light Rain Showers
3:00 PM 77.0 °F 66.2 °F 69% 29.96 in 6.2 mi West 12.7 mph - N/A Rain Light Rain Showers
4:00 PM 73.4 °F 69.8 °F 88% 29.97 in 5.0 mi West 12.7 mph - N/A Rain Rain Showers
4:10 PM 71.6 °F 68.0 °F 88% 29.97 in 3.7 mi West 10.4 mph - N/A Rain Rain
4:15 PM 69.8 °F 68.0 °F 94% 29.99 in 2.5 mi West 6.9 mph - N/A Rain Rain
5:00 PM 71.6 °F 68.0 °F 88% 29.99 in 3.7 mi WNW 6.9 mph - N/A Rain Rain
5:15 PM 69.8 °F 68.0 °F 94% 29.99 in 2.5 mi West 6.9 mph - N/A Rain Rain
6:00 PM 70 °F 69 °F 96% 29.88 in 2 mi West 4.6 mph - - Rain Light Rain
6:00 PM 69.8 °F 69.8 °F 100% 30.00 in 2.5 mi West 4.6 mph - N/A Rain Light Rain